Flag for South Korea Weather past 2 weeks in Daegu, South Korea

37 °F

Passing clouds.

Feels Like: 31 °F
Forecast: 33 / 41 °F
Wind: 8 mph from Northwest

Location: Taegu Ab

Current Time: Nov 26, 2015 at 8:50:37 AM

Latest Report: Nov 26, 2015 at 8:00 AM

Visibility: N/A

Pressure: 29.92 "Hg

Humidity: 60%

Dew point: 25 °F

Location of DaeguLocation

Historic Weather in Daegu — Graph


Daegu temperature yesterday

Maximum temperature yesterday: 48 °F (at 12:00 AM)
Minimum temperature yesterday: 43 °F (at 9:00 PM)
Average temperature yesterday: 46 °F

Past Weeks' High & Low Weather Summary

High66 °F (Nov 12, 12:00 PM)100% (Nov 14, 9:00 AM)30.42 "Hg (Nov 14, 9:00 AM)
Low36 °F (Nov 26, 7:00 AM)45% (Nov 20, 2:00 PM)29.86 "Hg (Nov 14, 2:00 PM)
Average55 °F79%30.16 "Hg
* Reported Nov 11 7:00 AM — Nov 26 7:00 AM, Daegu, Weather by CustomWeather, © 2015

Note: Actual official high and low records may vary slightly from our data, if they occured in-between our weather recording intervals... More about our weather records


Daegu weather history for previous 24 hours

Time TempWeatherWind HumidityBarometerVisibility
7:00 AM
Thu, Nov 26
36 °FPassing clouds.9 mph65%29.92 "HgN/A
6:00 AM39 °FPassing clouds.8 mph48%29.92 "HgN/A
5:00 AM39 °FPassing clouds.15 mph48%29.92 "HgN/A
4:00 AM39 °FPassing clouds.12 mph52%29.92 "HgN/A
3:00 AM41 °FPassing clouds.16 mph53%29.92 "HgN/A
2:00 AM43 °FPassing clouds.10 mph57%29.92 "HgN/A
1:00 AM43 °FPassing clouds.9 mph61%29.95 "HgN/A
12:00 AM43 °FPassing clouds.18 mph71%29.95 "HgN/A
11:00 PM
Wed, Nov 25
45 °FPassing clouds.9 mph71%29.95 "HgN/A
10:00 PM45 °FPassing clouds.8 mph76%29.95 "HgN/A
9:00 PM43 °FPassing clouds.3 mph81%29.95 "HgN/A
8:00 PM45 °FPassing clouds.6 mph76%29.98 "HgN/A
7:00 PM46 °FPassing clouds.7 mph76%29.98 "HgN/A
6:00 PM46 °FPassing clouds.7 mph76%29.98 "HgN/A
5:00 PM46 °FBroken clouds.7 mph82%29.98 "Hg6 mi
4:00 PM48 °FDrizzle. Mostly cloudy.6 mph76%29.98 "Hg5 mi
3:00 PM48 °FLight rain. Mostly cloudy.3 mph76%30.01 "Hg5 mi
2:00 PM46 °FLight rain. Mostly cloudy.6 mph87%30.01 "Hg5 mi
1:00 PM46 °FLight rain. Mostly cloudy.1 mph82%30.04 "Hg5 mi
12:00 PM46 °FLight rain. Mostly cloudy.2 mph82%30.07 "Hg5 mi
11:00 AM46 °FLight rain. More clouds than sun.2 mph82%30.09 "Hg6 mi
10:00 AM46 °FLight rain. More clouds than sun.2 mph82%30.09 "HgN/A
9:00 AM46 °FLight rain. More clouds than sun.1 mph82%30.12 "HgN/A
8:00 AM46 °FLight rain. More clouds than sun.1 mph76%30.12 "HgN/A
Weather by CustomWeather, © 2015

See weather overviewHow to use our weather pages